Location: Buckland
(65.9785°N, 161.1281°W)
Time: 01:00:12
(UTC+00:00)

AO-85 - Visible Passes

Search period start: 24 January 2021 00:00
Search period end: 03 February 2021 00:00
Orbit: 521 x 762 km, 64.8° (Epoch: 12 March)

Date Brightness Start Highest point End Pass type
(mag) Time Alt. Az. Time Alt. Az. Time Alt. Az.
24 Jan ? 17:13:05 10° SSW 17:16:46 30° SE 17:20:41 10° ENE visible
24 Jan ? 18:52:22 10° WSW 18:56:37 63° SSE 19:01:13 10° E visible
25 Jan ? 15:58:52 10° SSE 16:01:30 16° ESE 16:04:16 10° E visible
25 Jan ? 17:36:55 10° SW 17:40:55 42° SE 17:45:15 10° ENE visible
26 Jan ? 16:22:01 10° S 16:25:28 25° SE 16:29:07 10° ENE visible
26 Jan ? 18:00:59 10° SW 18:05:11 56° SSE 18:09:44 10° ENE visible
27 Jan ? 15:08:22 10° SE 15:10:19 13° ESE 15:12:19 10° E visible
27 Jan ? 16:45:40 10° SSW 16:49:33 36° SE 16:53:43 10° ENE visible
27 Jan ? 18:25:14 10° WSW 18:29:33 69° SSE 18:34:12 10° E visible
28 Jan ? 15:32:05 15° SSE 15:34:12 20° SE 15:37:29 10° E visible
28 Jan ? 17:09:41 10° SW 17:13:46 49° SSE 17:18:13 10° ENE visible
29 Jan ? 15:56:07 20° S 15:58:14 30° SE 16:02:11 10° ENE visible
29 Jan ? 17:33:49 10° WSW 17:38:05 63° SSE 17:42:42 10° E visible
30 Jan ? 14:42:30 16° SE 14:42:58 17° ESE 14:45:45 10° E visible
30 Jan ? 16:20:06 23° SSW 16:22:23 43° SE 16:26:44 10° ENE visible
30 Jan ? 17:58:06 10° WSW 18:02:28 74° S 18:07:11 10° E visible
31 Jan ? 15:06:25 24° SE 15:06:55 25° SE 15:10:36 10° ENE visible
31 Jan ? 16:44:00 22° SW 16:46:39 57° SSE 16:51:12 10° ENE visible
31 Jan ? 18:22:28 10° W 18:26:54 78° S 18:31:41 10° E visible
01 Feb ? 13:52:41 12° ESE 13:52:41 12° ESE 13:53:50 10° E visible
01 Feb ? 15:30:16 34° SSE 15:31:00 36° SE 15:35:12 10° ENE visible
01 Feb ? 17:07:52 19° WSW 17:11:00 70° SSE 17:15:41 10° E visible
02 Feb ? 14:16:30 20° ESE 14:16:30 20° ESE 14:18:59 10° E visible
02 Feb ? 15:54:05 39° SSW 15:55:14 50° SSE 15:59:43 10° ENE visible
02 Feb ? 17:31:41 14° WSW 17:35:24 77° S 17:40:11 10° E visible
